TimeCST,TemperatureF,Dew PointF,Humidity,Sea Level PressureIn,VisibilityMPH,Wind Direction,Wind SpeedMPH,Gust SpeedMPH,PrecipitationIn,Events,Conditions,WindDirDegrees,DateUTC
12:15 AM,27.7,25.0,90,30.22,4.0,NNE,13.8,19.6,N/A,,Overcast,20,2014-03-02 06:15:00
12:35 AM,27.7,25.7,92,30.23,3.0,North,15.0,-,N/A,,Overcast,10,2014-03-02 06:35:00
1:00 AM,27.5,25.7,93,30.21,4.0,North,12.7,-,N/A,,Overcast,10,2014-03-02 07:00:00
1:15 AM,27.3,25.5,93,30.21,4.0,North,13.8,-,N/A,,Overcast,10,2014-03-02 07:15:00
1:35 AM,27.1,25.2,92,30.21,4.0,North,9.2,-,N/A,,Overcast,10,2014-03-02 07:35:00
1:55 AM,26.8,25.0,93,30.21,4.0,North,10.4,-,0.01,,Overcast,10,2014-03-02 07:55:00
2:15 AM,26.6,25.0,94,30.22,5.0,North,11.5,-,N/A,,Overcast,360,2014-03-02 08:15:00
2:35 AM,26.6,24.6,92,30.20,4.0,NNE,10.4,-,N/A,,Overcast,20,2014-03-02 08:35:00
2:55 AM,26.4,24.6,93,30.22,5.0,North,11.5,-,N/A,,Overcast,10,2014-03-02 08:55:00
3:15 AM,26.1,23.9,92,30.22,5.0,North,12.7,-,N/A,,Overcast,10,2014-03-02 09:15:00
3:35 AM,25.7,23.5,92,30.20,5.0,North,11.5,-,N/A,,Overcast,10,2014-03-02 09:35:00
3:55 AM,25.5,23.4,92,30.19,7.0,North,12.7,-,N/A,,Overcast,10,2014-03-02 09:55:00
4:15 AM,25.3,23.0,91,30.19,10.0,North,12.7,18.4,N/A,,Overcast,10,2014-03-02 10:15:00
4:40 AM,24.8,22.6,91,30.20,10.0,North,13.8,-,N/A,,Overcast,10,2014-03-02 10:40:00
4:55 AM,24.6,22.1,90,30.20,5.0,NNE,15.0,21.9,N/A,,Overcast,20,2014-03-02 10:55:00
5:15 AM,24.4,22.1,91,30.22,2.0,North,13.8,23.0,N/A,Snow,Light Snow,10,2014-03-02 11:15:00
5:35 AM,24.4,22.6,93,30.22,2.5,North,12.7,-,N/A,Snow,Light Snow,360,2014-03-02 11:35:00
5:55 AM,23.7,21.7,92,30.23,2.0,North,12.7,16.1,0.01,Snow,Light Snow,360,2014-03-02 11:55:00
6:15 AM,23.0,20.8,91,30.23,3.0,North,12.7,-,0.01,Snow-Thunderstorm,Light Thunderstorms and Snow,360,2014-03-02 12:15:00
6:35 AM,22.6,20.7,92,30.23,1.8,North,16.1,-,0.01,Snow,Light Snow,360,2014-03-02 12:35:00
6:55 AM,22.1,19.8,91,30.24,4.0,North,15.0,-,0.01,,Overcast,360,2014-03-02 12:55:00
7:15 AM,21.7,19.2,90,30.26,4.0,North,16.1,-,N/A,Snow,Light Snow,360,2014-03-02 13:15:00
7:35 AM,21.4,19.0,91,30.26,1.5,North,13.8,17.3,0.01,Snow,Light Snow,350,2014-03-02 13:35:00
7:55 AM,20.8,18.3,90,30.28,1.8,North,15.0,-,0.01,,Overcast,350,2014-03-02 13:55:00
8:15 AM,20.1,17.6,90,30.30,2.0,North,12.7,-,0.01,Snow,Light Snow,360,2014-03-02 14:15:00
8:35 AM,20.5,18.1,91,30.31,2.0,North,12.7,-,0.01,Snow,Light Snow,360,2014-03-02 14:35:00
8:55 AM,20.3,17.2,88,30.30,4.0,North,13.8,-,0.01,Snow,Light Snow,360,2014-03-02 14:55:00
9:15 AM,20.3,17.2,88,30.32,7.0,North,16.1,19.6,N/A,,Overcast,350,2014-03-02 15:15:00
9:35 AM,20.7,17.6,88,30.30,10.0,North,16.1,19.6,N/A,,Overcast,360,2014-03-02 15:35:00
9:55 AM,21.0,18.0,88,30.30,10.0,North,16.1,-,N/A,,Overcast,360,2014-03-02 15:55:00
10:15 AM,21.4,18.5,89,30.30,10.0,North,18.4,21.9,N/A,,Overcast,350,2014-03-02 16:15:00
10:35 AM,21.9,18.9,88,30.31,10.0,North,11.5,18.4,N/A,,Overcast,350,2014-03-02 16:35:00
10:55 AM,22.1,18.9,87,30.31,10.0,North,16.1,19.6,N/A,,Overcast,360,2014-03-02 16:55:00
11:15 AM,22.3,18.9,87,30.30,10.0,North,15.0,20.7,N/A,,Overcast,350,2014-03-02 17:15:00
11:35 AM,22.3,19.0,87,30.32,10.0,North,16.1,-,N/A,,Overcast,350,2014-03-02 17:35:00
11:55 AM,21.9,18.3,86,30.32,10.0,North,16.1,-,N/A,,Overcast,350,2014-03-02 17:55:00
12:15 PM,22.6,19.2,87,30.29,10.0,North,15.0,-,N/A,,Overcast,360,2014-03-02 18:15:00
12:35 PM,22.1,18.5,86,30.31,10.0,North,12.7,17.3,N/A,,Overcast,350,2014-03-02 18:35:00
12:55 PM,21.6,17.6,85,30.29,7.0,North,16.1,-,N/A,Snow,Light Snow,350,2014-03-02 18:55:00
1:15 PM,21.2,17.6,86,30.29,7.0,North,15.0,-,N/A,Snow,Light Snow,350,2014-03-02 19:15:00
1:35 PM,20.7,16.9,85,30.29,7.0,North,13.8,-,N/A,Snow,Light Snow,350,2014-03-02 19:35:00
1:55 PM,20.7,16.9,85,30.27,10.0,North,15.0,-,N/A,Snow,Light Snow,360,2014-03-02 19:55:00
2:15 PM,20.1,16.5,86,30.29,2.0,NNW,15.0,-,N/A,Snow,Light Snow,340,2014-03-02 20:15:00
2:35 PM,18.9,15.4,87,30.31,2.5,North,16.1,-,0.01,Snow,Light Snow,350,2014-03-02 20:35:00
2:55 PM,18.9,15.4,87,30.31,2.5,NNW,17.3,-,0.02,Snow,Light Snow,340,2014-03-02 20:55:00
3:15 PM,18.5,14.5,85,30.29,3.0,North,18.4,-,N/A,Snow,Light Snow,360,2014-03-02 21:15:00
3:35 PM,18.0,14.0,84,30.29,4.0,North,18.4,-,N/A,Snow,Light Snow,350,2014-03-02 21:35:00
3:55 PM,17.8,14.0,85,30.30,3.0,North,18.4,24.2,N/A,Snow,Light Snow,350,2014-03-02 21:55:00
4:15 PM,17.4,13.8,86,30.29,3.0,North,16.1,-,N/A,Snow,Light Snow,350,2014-03-02 22:15:00
4:35 PM,17.1,13.6,86,30.31,3.0,North,17.3,-,N/A,Snow,Light Snow,350,2014-03-02 22:35:00
4:55 PM,16.5,12.7,85,30.31,3.0,North,17.3,24.2,N/A,Snow,Light Snow,350,2014-03-02 22:55:00
5:15 PM,16.2,12.0,84,30.33,5.0,NNW,12.7,-,N/A,Snow,Light Snow,340,2014-03-02 23:15:00
5:35 PM,15.8,12.2,86,30.35,3.0,North,10.4,-,N/A,Snow,Light Snow,350,2014-03-02 23:35:00
5:55 PM,15.3,11.3,84,30.34,3.0,North,12.7,-,0.01,Snow,Light Snow,360,2014-03-02 23:55:00
6:20 PM,14.9,10.8,84,30.35,10.0,North,15.0,-,N/A,Snow,Light Snow,350,2014-03-03 00:20:00
6:35 PM,14.7,10.4,83,30.36,10.0,NNW,15.0,-,N/A,,Overcast,340,2014-03-03 00:35:00
6:55 PM,14.0,10.4,86,30.35,4.0,North,15.0,-,N/A,Snow,Light Snow,350,2014-03-03 00:55:00
7:15 PM,13.5,9.5,84,30.34,2.5,North,16.1,-,N/A,Snow,Light Snow,350,2014-03-03 01:15:00
7:35 PM,12.7,9.1,86,30.32,1.5,North,21.9,26.5,N/A,Snow,Light Snow,360,2014-03-03 01:35:00
7:55 PM,12.6,9.1,86,30.32,2.0,North,18.4,-,N/A,Snow,Light Snow,350,2014-03-03 01:55:00
8:15 PM,12.4,8.6,85,30.33,2.0,North,16.1,23.0,N/A,Snow,Light Snow,350,2014-03-03 02:15:00
8:35 PM,12.2,8.2,84,30.34,2.0,North,18.4,-,N/A,Snow,Light Snow,350,2014-03-03 02:35:00
8:55 PM,12.2,8.4,85,30.34,1.8,North,17.3,-,N/A,Snow,Light Snow,350,2014-03-03 02:55:00
9:15 PM,11.7,7.5,83,30.33,1.5,North,19.6,-,N/A,Snow,Light Snow,10,2014-03-03 03:15:00
9:35 PM,11.1,7.0,83,30.33,1.5,North,19.6,24.2,N/A,Snow,Light Snow,360,2014-03-03 03:35:00
9:55 PM,10.9,6.8,83,30.34,1.8,North,15.0,20.7,N/A,Snow,Light Snow,360,2014-03-03 03:55:00
10:15 PM,11.1,6.6,82,30.33,2.5,North,12.7,-,N/A,Snow,Light Snow,360,2014-03-03 04:15:00
10:35 PM,11.1,5.2,77,30.35,4.0,North,17.3,23.0,N/A,Snow,Light Snow,360,2014-03-03 04:35:00
10:55 PM,11.3,4.8,75,30.36,10.0,North,18.4,-,N/A,,Overcast,360,2014-03-03 04:55:00
11:15 PM,11.1,4.8,76,30.34,10.0,North,17.3,20.7,N/A,,Overcast,360,2014-03-03 05:15:00
11:35 PM,11.1,5.0,76,30.34,10.0,North,16.1,-,N/A,,Overcast,350,2014-03-03 05:35:00
11:55 PM,10.9,4.6,76,30.34,10.0,North,19.6,-,N/A,,Overcast,360,2014-03-03 05:55:00